Welcome to mirrors.dotsrc.org

All our mirrors of open source software are available via http, https, ftp and an onion service. More information about our mirrors including statistics and contact information is available on our mirror info pages.

For information about dotsrc.org and our other services please go to our website.

Index of /pub/mirrors/kali/pool/main/t/

File Name  ↓ File Size  ↓ Date  ↓ 
Parent directory/--
telepathy-phoenix/-2013-01-16 21:37:32
tinysvm/-2013-01-16 21:37:32
tk8.4/-2016-12-29 12:00:30
tcl8.4/-2016-12-29 12:00:30
tcputils/-2017-04-19 15:01:39
ttf2ufm/-2017-04-19 15:01:42
tthsum/-2017-04-19 15:01:42
tz-converter/-2018-01-12 12:00:53
ttylog/-2018-01-26 20:59:19
transcriber/-2018-04-06 20:01:41
tk707/-2018-04-06 20:01:41
trove/-2018-07-31 08:17:04
textdraw/-2018-07-31 08:17:04
testng/-2018-10-16 15:40:41
tempest-for-eliza/-2018-10-16 15:40:41
todotxt-cli/-2018-10-16 15:40:41
triod-postnaja/-2019-01-06 00:05:10
tcl-xmlrpc/-2019-01-29 21:36:56
trove3/-2019-01-29 21:36:57
tcs/-2019-05-03 19:45:41
timingframework/-2019-05-03 19:45:41
tayga/-2019-05-03 19:45:41
tools-nrepl-clojure/-2019-05-03 19:45:41
t-digest/-2019-08-21 09:28:58
tclex/-2019-08-21 09:28:58
tktreectrl/-2019-08-21 09:28:58
tzc/-2019-08-21 09:28:58
tktray/-2019-08-21 09:28:58
tkdesk/-2019-08-21 09:28:58
tkdnd/-2019-08-21 09:28:58
tandem-mass/-2019-08-21 09:28:58
txt2pdbdoc/-2019-08-21 09:28:58
tcludp/-2019-08-21 09:28:58
tkpng/-2019-08-21 09:28:58
triplea/-2019-08-27 12:00:28
threeten-extra/-2019-12-30 06:01:15
tea4cups/-2020-01-18 13:06:59
telepathy-spec/-2020-01-18 13:06:59
transaction/-2020-01-18 13:06:59
tweeny/-2020-01-18 13:06:59
taglog/-2020-01-18 13:06:59
tomahawk/-2020-01-18 13:06:59
tmperamental/-2020-03-11 12:09:43
t1utils/-2020-05-05 08:43:26
triehash/-2020-05-05 08:43:30
ttyrec/-2020-05-05 08:43:32
tua/-2020-05-05 08:43:32
tophat-recondition/-2020-06-14 18:00:38
tenshi/-2020-07-21 14:50:02
tiarra/-2020-07-21 14:50:03
tao-config/-2020-07-26 12:02:54
tao-json/-2020-07-26 12:02:55
taptempo/-2020-11-11 12:46:04
tcpspy/-2020-11-11 12:46:05
tcc/-2020-11-11 12:46:05
termineter/-2020-11-11 12:46:05
tk-fsdialog/-2020-11-11 12:46:09
tk5/-2020-11-11 12:46:09
ttysnoop/-2020-11-11 12:46:16
tunnelx/-2021-01-03 06:02:58
trapperkeeper-comidi-metrics-clojure/-2021-02-09 06:02:49
t-prot/-2021-02-16 12:23:03
task-spooler/-2021-02-16 12:23:03
tagsoup/-2021-02-16 12:23:03
tcl-sugar/-2021-02-16 12:23:03
texify/-2021-02-16 12:23:04
texhyphj/-2021-02-16 12:23:04
tecnoballz/-2021-02-16 12:23:04
tools-cli-clojure/-2021-02-16 12:23:06
trace2dbest/-2021-02-16 12:23:06
tircd/-2021-02-16 12:23:06
trilead-putty-extension/-2021-02-16 12:23:06
tools-trace-clojure/-2021-02-16 12:23:06
tomatoes/-2021-02-16 12:23:06
tools-namespace-clojure/-2021-02-16 12:23:06
tourney-manager/-2021-02-16 12:23:06
transmission-el/-2021-02-16 12:23:06
tkinspect/-2021-02-16 12:23:06
tpp/-2021-02-16 12:23:06
tlssled/-2021-02-16 12:23:06
trilead-ssh2/-2021-02-16 12:23:06
tracetuner/-2021-02-16 12:23:06
tk2/-2021-02-16 12:23:06
trimmomatic/-2021-02-16 12:23:06
ttf-ancient-fonts/-2021-02-16 12:23:06
tt-rss-notifier-chrome/-2021-02-16 12:23:06
twittering-mode/-2021-02-16 12:23:07
twofi/-2021-02-16 12:23:07
tweeper/-2021-02-16 12:23:07
typesafe-config/-2021-02-16 12:23:07
twinvoicerecalc/-2021-02-16 12:23:07
twatch/-2021-02-16 12:23:07
tv-fonts/-2021-02-16 12:23:07
typesafe-config-clojure/-2021-02-16 12:23:07
twiggy/-2021-02-16 12:23:07
twython/-2021-02-16 12:23:07
triplane/-2021-05-25 16:06:24
timgm6mb-soundfont/-2021-05-25 16:06:24
trivial-macroexpand-all/-2021-08-16 14:33:28
tcl-awthemes/-2021-08-31 15:21:39
tcode/-2021-08-31 15:21:39
thefuck/-2021-08-31 15:21:40
tipa/-2021-08-31 15:21:40
todo.txt-base/-2021-08-31 15:21:40
treepy-el/-2021-08-31 15:21:41
transip/-2021-08-31 15:21:41
t50/-2021-09-06 00:08:38
tftpd32/-2021-09-19 16:01:46
themole/-2021-11-25 13:09:26
tran/-2021-11-25 13:09:27
toro/-2021-11-25 13:09:27
trscripts/-2021-11-25 13:09:27
trivial-gray-streams/-2021-11-25 13:09:27
topline/-2021-11-25 13:09:27
t2html/-2021-11-29 00:17:13
tclws/-2022-02-07 17:15:35
tap.py/-2022-02-07 17:15:35
three-merge/-2022-02-07 17:15:39
toilet/-2022-02-07 17:15:39
tiles-request/-2022-02-07 17:15:39
trivial-features/-2022-02-07 17:15:40
textarea-caret.js/-2022-02-24 06:01:30
tls-parser/-2022-04-13 01:35:17
tmexpand/-2022-05-04 06:01:13
tkinfo/-2022-05-04 07:20:19
tpm-udev/-2022-05-04 07:20:19
tmux-themepack-jimeh/-2022-05-04 07:20:19
ttf-bitstream-vera/-2022-05-04 07:20:22
tj3/-2022-05-09 00:00:43
truss-clojure/-2022-06-22 06:02:55
te923con/-2022-07-20 07:52:10
tclx8.4/-2022-07-20 07:52:10
teensy-loader-cli/-2022-07-20 07:52:10
tetrinet/-2022-07-20 07:52:11
tf/-2022-07-20 07:52:11
tina/-2022-07-20 07:52:13
togl/-2022-07-20 07:52:13
tini/-2022-07-20 07:52:13
tinyscheme/-2022-07-20 07:52:13
tint/-2022-07-20 07:52:13
tm-align/-2022-07-20 07:52:13
transtermhp/-2022-07-20 07:52:14
tsung/-2022-07-20 07:52:16
tuna/-2022-07-20 07:52:17
tuxfootball/-2022-07-20 07:52:17
ttygif/-2022-07-20 07:52:17
tweak/-2022-07-20 07:52:17
t-code/-2022-08-02 19:02:11
tardiff/-2022-08-02 19:02:11
tango-icon-theme/-2022-08-02 19:02:11
tdiary-style-rd/-2022-08-02 19:02:11
taglibs-standard/-2022-08-02 19:02:11
tclxml/-2022-08-02 19:02:11
tesseract-lang/-2022-08-02 19:02:12
tgl/-2022-08-02 19:02:14
tinydb/-2022-08-02 19:02:15
tl-parser/-2022-08-02 19:02:15
topgit/-2022-08-02 19:02:15
typogrify/-2022-08-02 19:02:19
txws/-2022-08-02 19:02:19
tuxpaint-stamps/-2022-08-02 19:02:19
txzmq/-2022-08-02 19:02:19
txsni/-2022-08-02 19:02:19
tldextract/-2022-08-05 00:05:13
tinymux/-2022-08-05 00:05:13
taxy-el/-2022-08-12 06:02:05
translitcodec/-2022-08-20 06:02:07
tiptop/-2022-08-21 06:22:39
twopaco/-2022-10-02 06:07:10
tagcloud/-2022-11-14 06:06:56
targetcli-fb/-2022-11-23 01:58:09
tclap/-2022-11-23 01:58:09
td2planet/-2022-11-23 01:58:09
tao-pegtl/-2022-11-23 01:58:09
tamuanova/-2022-11-23 01:58:09
tegaki-zinnia-japanese/-2022-11-23 01:58:09
tcpreen/-2022-11-23 01:58:09
tex-gyre/-2022-11-23 01:58:11
tex-common/-2022-11-23 01:58:11
testpath/-2022-11-23 01:58:11
tftp-hpa/-2022-11-23 01:58:24
tigr-glimmer/-2022-11-23 01:58:25
thonny/-2022-11-23 01:58:25
three.js/-2022-11-23 01:58:25
tinyirc/-2022-11-23 01:58:25
tiger/-2022-11-23 01:58:25
time/-2022-11-23 01:58:25
tolua/-2022-11-23 01:58:26
topydo/-2022-11-23 01:58:26
tnat64/-2022-11-23 01:58:26
tllist/-2022-11-23 01:58:26
tools-reader-clojure/-2022-11-23 01:58:26
treeline/-2022-11-23 01:58:26
tomoyo-tools/-2022-11-23 01:58:26
trader/-2022-11-23 01:58:26
trinculo/-2022-11-23 01:58:27
txt2regex/-2022-11-23 01:58:27
tstools/-2022-11-23 01:58:27
txt2man/-2022-11-23 01:58:27
tty-solitaire/-2022-11-23 01:58:27
twodict/-2022-11-23 01:58:27
ttkthemes/-2022-11-23 01:58:27
txt2tags/-2022-11-25 00:08:19
tt-rss/-2022-11-26 06:03:56
treemacs/-2022-12-30 06:02:04
tcd-utils/-2023-01-09 06:05:31
ticgit/-2023-01-27 06:02:48
tools-logging-clojure/-2023-02-02 00:00:37
tideways/-2023-02-03 06:05:16
topparser/-2023-03-06 00:09:36
tabbar-el/-2023-03-07 13:36:16
t-coffee/-2023-03-07 13:36:16
teamsploit/-2023-03-07 13:36:19
tegaki-zinnia-simplified-chinese/-2023-03-07 13:36:19
tetex-brev/-2023-03-07 13:36:20
test-generative-clojure/-2023-03-07 13:36:20
test-check-clojure/-2023-03-07 13:36:20
termtosvg/-2023-03-07 13:36:20
texi2html/-2023-03-07 13:36:20
tess/-2023-03-07 13:36:20
test-chuck-clojure/-2023-03-07 13:36:20
theseus/-2023-03-07 13:36:28
texttable/-2023-03-07 13:36:28
tigris/-2023-03-07 13:36:28
trapperkeeper-status-clojure/-2023-03-07 13:36:29
tolua++/-2023-03-07 13:36:29
toybox/-2023-03-07 13:36:29
torsocks/-2023-03-07 13:36:29
translate/-2023-03-07 13:36:29
tk-brief/-2023-03-07 13:36:29
tkmpeg/-2023-03-07 13:36:29
trapperkeeper-scheduler-clojure/-2023-03-07 13:36:29
tofrodos/-2023-03-07 13:36:29
tmd710-tncsetup/-2023-03-07 13:36:29
tkcon/-2023-03-07 13:36:29
trimage/-2023-03-07 13:36:29
tools-analyzer-clojure/-2023-03-07 13:36:29
tools-analyzer-jvm-clojure/-2023-03-07 13:36:29
trapperkeeper-metrics-clojure/-2023-03-07 13:36:29
trufflehogregexes/-2023-03-07 13:36:29
trapperkeeper-filesystem-watcher-clojure/-2023-03-07 13:36:29
trace-summary/-2023-03-07 13:36:29
trim-galore/-2023-03-07 13:36:29
tnscmd10g/-2023-03-07 13:36:29
tortoize/-2023-03-07 13:36:29
tinycon.js/-2023-03-07 13:36:29
tools-gitlibs-clojure/-2023-03-07 13:36:29
tldr-py/-2023-03-07 13:36:29
towncrier/-2023-03-07 13:36:29
tryton-modules-stock-inventory-location/-2023-03-07 13:36:30
tryton-modules-purchase-invoice-line-standalone/-2023-03-07 13:36:30
tryton-meta/-2023-03-07 13:36:30
tryton-modules-stock-quantity-early-planning/-2023-03-07 13:36:30
tryton-modules-stock-lot-sled/-2023-03-07 13:36:30
tryton-modules-production-work-timesheet/-2023-03-07 13:36:30
tryton-modules-product-price-list-dates/-2023-03-07 13:36:30
tryton-modules-web-shop-vue-storefront/-2023-03-07 13:36:30
tryton-modules-sale-opportunity/-2023-03-07 13:36:30
tryton-modules-sale-history/-2023-03-07 13:36:30
tryton-modules-stock-supply-forecast/-2023-03-07 13:36:30
tryton-modules-analytic-invoice/-2023-03-07 13:36:30
tryton-modules-project-plan/-2023-03-07 13:36:30
tryton-modules-sale-secondary-unit/-2023-03-07 13:36:30
tryton-modules-google-maps/-2023-03-07 13:36:30
tryton-modules-account-stock-landed-cost/-2023-03-07 13:36:30
tryton-modules-account-invoice-correction/-2023-03-07 13:36:30
tryton-modules-sale-supply-production/-2023-03-07 13:36:30
tryton-modules-stock-quantity-issue/-2023-03-07 13:36:30
tryton-modules-account-invoice-line-standalone/-2023-03-07 13:36:30
tryton-modules-notification-email/-2023-03-07 13:36:30
tryton-modules-timesheet-cost/-2023-03-07 13:36:30
tryton-modules-stock-shipment-measurements/-2023-03-07 13:36:30
tryton-modules-country/-2023-03-07 13:36:30
tryton-modules-incoterm/-2023-03-07 13:36:30
tryton-modules-party-relationship/-2023-03-07 13:36:30
tryton-modules-edocument-unece/-2023-03-07 13:36:30
tryton-modules-web-shop/-2023-03-07 13:36:30
tryton-modules-sale-complaint/-2023-03-07 13:36:30
tryton-modules-product-measurements/-2023-03-07 13:36:30
tryton-modules-commission/-2023-03-07 13:36:30
tryton-modules-marketing/-2023-03-07 13:36:30
tryton-modules-sale-gift-card/-2023-03-07 13:36:30
tryton-modules-account-es/-2023-03-07 13:36:30
tryton-modules-product-classification/-2023-03-07 13:36:30
tryton-modules-purchase-secondary-unit/-2023-03-07 13:36:30
tryton-modules-project/-2023-03-07 13:36:30
tryton-modules-account-payment-braintree/-2023-03-07 13:36:30
tryton-modules-sale-stock-quantity/-2023-03-07 13:36:30
tryton-modules-stock-supply-day/-2023-03-07 13:36:30
tryton-modules-account-statement-coda/-2023-03-07 13:36:30
tryton-modules-account-dunning-letter/-2023-03-07 13:36:30
tryton-modules-sale-product-customer/-2023-03-07 13:36:30
tryton-modules-stock-location-sequence/-2023-03-07 13:36:30
tryton-modules-authentication-sms/-2023-03-07 13:36:30
tryton-modules-sale-extra/-2023-03-07 13:36:30
tryton-modules-party-avatar/-2023-03-07 13:36:30
tryton-modules-purchase-history/-2023-03-07 13:36:30
tryton-proteus/-2023-03-07 13:36:30
tryton-modules-account-cash-rounding/-2023-03-07 13:36:30
tryton-modules-user-role/-2023-03-07 13:36:30
tryton-modules-purchase-request-quotation/-2023-03-07 13:36:30
tryton-modules-stock-supply-production/-2023-03-07 13:36:30
tryton-modules-account-stock-landed-cost-weight/-2023-03-07 13:36:30
tryton-modules-account-statement-ofx/-2023-03-07 13:36:30
tryton-modules-sale-promotion-coupon/-2023-03-07 13:36:30
tryton-modules-production-work/-2023-03-07 13:36:30
tryton-modules-bank/-2023-03-07 13:36:30
tryton-modules-stock-location-move/-2023-03-07 13:36:30
tryton-modules-account-stock-anglo-saxon/-2023-03-07 13:36:30
tryton-modules-account-de-skr03/-2023-03-07 13:36:30
tryton-modules-attendance/-2023-03-07 13:36:30
tryton-modules-product-cost-fifo/-2023-03-07 13:36:30
tryton-modules-stock-lot-unit/-2023-03-07 13:36:30
tryton-modules-sale-invoice-grouping/-2023-03-07 13:36:30
tryton-modules-account-statement-rule/-2023-03-07 13:36:30
tryton-modules-account-be/-2023-03-07 13:36:30
tryton-modules-web-shop-vue-storefront-stripe/-2023-03-07 13:36:30
tryton-modules-sale-discount/-2023-03-07 13:36:30
tryton-modules-account-asset/-2023-03-07 13:36:30
tryton-modules-account-deposit/-2023-03-07 13:36:30
tryton-modules-commission-waiting/-2023-03-07 13:36:30
tryton-modules-stock-package/-2023-03-07 13:36:30
tryton-modules-purchase-requisition/-2023-03-07 13:36:30
tryton-modules-account-fr-chorus/-2023-03-07 13:36:30
tryton-modules-web-shortener/-2023-03-07 13:36:30
tryton-modules-customs/-2023-03-07 13:36:30
tryton-modules-account-credit-limit/-2023-03-07 13:36:30
tryton-modules-product-cost-warehouse/-2023-03-07 13:36:30
tryton-modules-ldap-authentication/-2023-03-07 13:36:30
tryton-modules-account-invoice-secondary-unit/-2023-03-07 13:36:30
tryton-modules-carrier-percentage/-2023-03-07 13:36:30
tryton-modules-carrier/-2023-03-07 13:36:30
tryton-modules-purchase-price-list/-2023-03-07 13:36:30
tryton-modules-production-split/-2023-03-07 13:36:30
tryton-modules-project-invoice/-2023-03-07 13:36:30
tryton-modules-timesheet/-2023-03-07 13:36:30
tryton-modules-product-price-list-parent/-2023-03-07 13:36:30
tryton-modules-analytic-account/-2023-03-07 13:36:30
tryton-modules-carrier-weight/-2023-03-07 13:36:30
tryton-modules-account-invoice-history/-2023-03-07 13:36:30
tryton-modules-party-siret/-2023-03-07 13:36:30
tryton-modules-account-eu/-2023-03-07 13:36:30
tryton-modules-sale-price-list/-2023-03-07 13:36:30
tryton-modules-purchase-shipment-cost/-2023-03-07 13:36:30
tryton-modules-stock-split/-2023-03-07 13:36:30
tryton-modules-account-dunning-email/-2023-03-07 13:36:30
tryton-modules-dashboard/-2023-03-07 13:36:30
tryton-modules-sale-shipment-grouping/-2023-03-07 13:36:30
tryton-modules-sale-subscription-asset/-2023-03-07 13:36:30
tryton-modules-stock-assign-manual/-2023-03-07 13:36:30
tryton-modules-product-attribute/-2023-03-07 13:36:30
tryton-modules-product-price-list/-2023-03-07 13:36:30
tth/-2023-03-07 13:36:30
tryton-modules-stock-consignment/-2023-03-07 13:36:30
tryton-modules-company-work-time/-2023-03-07 13:36:30
tworld/-2023-03-07 13:36:31
txt2html/-2023-03-07 13:36:31
txdbus/-2023-03-07 13:36:31
twitter-bootstrap4/-2023-03-07 13:36:31
twitter-bootstrap3/-2023-03-07 13:36:31
thaixfonts/-2023-03-10 00:07:07
thehive/-2023-03-27 00:10:24
tenmado/-2023-05-23 02:10:30
tableau-parm/-2023-05-23 02:10:30
torrus/-2023-05-23 02:10:37
tiles/-2023-05-23 02:10:37
tryton-modules-account-dunning-fee/-2023-05-23 02:10:41
tryton-modules-account-fr/-2023-05-23 02:10:42
tryton-modules-analytic-purchase/-2023-05-23 02:10:42
tryton-modules-analytic-sale/-2023-05-23 02:10:42
twms/-2023-05-23 02:10:43
tb-goodies/-2023-06-13 06:09:46
testng7/-2023-06-21 06:19:24
tntdb/-2023-06-22 00:02:48
tiktoken/-2023-06-24 06:19:25
turbosearch/-2023-08-07 06:22:10
templating-maven-plugin/-2023-08-16 16:08:53
tclodbc/-2023-08-16 16:08:53
terminado/-2023-08-16 16:08:53
terminator/-2023-08-16 16:08:53
tang/-2023-08-16 16:08:53
testrepository/-2023-08-16 16:08:53
the/-2023-08-16 16:08:54
tmux-plugin-manager/-2023-08-16 16:08:54
trinity/-2023-08-16 16:08:55
tryton-modules-marketing-automation/-2023-08-16 16:08:55
tp-smapi/-2023-08-16 16:08:55
tryton-modules-product/-2023-08-16 16:08:55
tomcat9/-2023-08-16 16:08:55
tryton-modules-currency/-2023-08-16 16:08:55
tryton-modules-production-routing/-2023-08-16 16:08:55
tools-deps-clojure/-2023-08-16 16:08:55
tryton-modules-account-dunning/-2023-08-16 16:08:55
tryton-modules-web-user/-2023-08-16 16:08:55
tryton-modules-sale-shipment-cost/-2023-08-16 16:08:55
tryton-modules-product-classification-taxonomic/-2023-08-16 16:08:55
toposort/-2023-08-16 16:08:55
twinkle/-2023-08-16 16:09:01
tralics/-2023-08-31 06:20:31
trac-subcomponents/-2023-10-27 06:20:50
trac-customfieldadmin/-2023-10-27 06:20:50
trac-xmlrpc/-2023-10-28 06:20:03
trac-wysiwyg/-2023-10-28 06:20:03
terraform-switcher/-2023-11-10 06:23:36
terraform/-2023-11-30 02:16:45
teseq/-2023-11-30 02:16:45
tempest-horizon/-2023-11-30 02:16:45
tbsync/-2023-11-30 02:16:45
tdc/-2023-11-30 02:16:45
tatan/-2023-11-30 02:16:45
tap-plugins/-2023-11-30 02:16:45
tap-plugins-doc/-2023-11-30 02:16:45
tcvt/-2023-11-30 02:16:45
testssl.sh/-2023-11-30 02:16:45
tightvnc-java/-2023-11-30 02:16:52
tilix/-2023-11-30 02:16:52
tlp/-2023-11-30 02:16:52
titanion/-2023-11-30 02:16:52
torrequest/-2023-11-30 02:16:53
tophide/-2023-11-30 02:16:53
tomcat-jakartaee-migration/-2023-11-30 02:16:53
transgui/-2023-11-30 02:16:53
torus-trooper/-2023-11-30 02:16:53
transdecoder/-2023-11-30 02:16:53
traitlets/-2023-11-30 02:16:53
treelib/-2023-11-30 02:16:53
todoman/-2023-11-30 02:16:53
totalopenstation/-2023-11-30 02:16:53
trufflehog/-2023-11-30 02:16:57
ttyload/-2023-11-30 02:16:57
tryton-modules-account-payment-sepa-cfonb/-2023-11-30 02:16:57
tryton-modules-account-payment-clearing/-2023-11-30 02:16:57
trophy/-2023-11-30 02:16:57
tzdiff/-2023-11-30 02:16:57
tryton-modules-account-payment-sepa/-2023-11-30 02:16:57
tuareg-mode/-2023-11-30 02:16:57
typeshed/-2023-11-30 02:16:57
tryton-modules-stock-secondary-unit/-2023-11-30 02:16:57
tumiki-fighters/-2023-11-30 02:16:57
tryton-modules-product-cost-history/-2023-11-30 02:16:57
tryton-modules-marketing-email/-2023-11-30 02:16:57
trac/-2023-12-04 00:20:01
tup/-2023-12-27 06:22:07
tea-cli/-2023-12-30 06:22:08
tinymembench/-2024-01-04 06:23:28
tree-sitter-c/-2024-01-29 00:01:49
tree-sitter-vimdoc/-2024-01-29 00:01:50
tree-sitter-lua/-2024-01-29 00:01:50
tree-sitter-query/-2024-01-29 00:01:50
tree-sitter-vim/-2024-01-29 00:01:50
traittypes/-2024-01-31 06:20:53
theme-d-intr/-2024-01-31 06:20:56
thumbor-plugins-gifv/-2024-02-11 06:24:31
tiny-dnn/-2024-02-14 06:21:30
trapperkeeper-clojure/-2024-02-17 06:22:22
trapperkeeper-authorization-clojure/-2024-02-18 06:20:59
tar/-2024-02-21 01:41:59
tbox/-2024-02-21 01:41:59
tcl-signal/-2024-02-21 01:41:59
tcllib/-2024-02-21 01:41:59
tclcl/-2024-02-21 01:41:59
tarlz/-2024-02-21 01:41:59
taxy-magit-section-el/-2024-02-21 01:41:59
tdb/-2024-02-21 01:41:59
tapecalc/-2024-02-21 01:41:59
telegram-send/-2024-02-21 01:42:00
termrec/-2024-02-21 01:42:00
terraphast/-2024-02-21 01:42:00
tercpp/-2024-02-21 01:42:00
tetgen/-2024-02-21 01:42:00
texlive-base/-2024-02-21 01:42:01
texlive-extra/-2024-02-21 01:42:05
theme-d/-2024-02-21 01:42:09
texworks-manual/-2024-02-21 01:42:09
texlive-lang/-2024-02-21 01:42:09
textdistance/-2024-02-21 01:42:09
tidy-html5/-2024-02-21 01:42:10
ticker/-2024-02-21 01:42:10
tinycdb/-2024-02-21 01:42:10
ticketbooth/-2024-02-21 01:42:10
tkcalendar/-2024-02-21 01:42:11
tl-expected/-2024-02-21 01:42:11
tinyxml2/-2024-02-21 01:42:11
tkhtml1/-2024-02-21 01:42:11
tkagif/-2024-02-21 01:42:11
tkblt/-2024-02-21 01:42:11
tinyxml/-2024-02-21 01:42:11
tk-table/-2024-02-21 01:42:11
tpb/-2024-02-21 01:42:12
tomsfastmath/-2024-02-21 01:42:12
toon/-2024-02-21 01:42:12
tree-sitter/-2024-02-21 01:42:13
tree/-2024-02-21 01:42:13
tqftpserv/-2024-02-21 01:42:13
trash-cli/-2024-02-21 01:42:13
transforms3d/-2024-02-21 01:42:13
trace-cmd/-2024-02-21 01:42:13
translation-finder/-2024-02-21 01:42:13
transmissionrpc/-2024-02-21 01:42:13
tre/-2024-02-21 01:42:13
traceroute/-2024-02-21 01:42:13
trove-classifiers/-2024-02-21 01:42:14
tryton-modules-sale-credit-limit/-2024-02-21 01:42:14
tuptime/-2024-02-21 01:42:14
tryton-modules-product-kit/-2024-02-21 01:42:14
tryton-modules-stock-package-shipping-dpd/-2024-02-21 01:42:14
tty-clock/-2024-02-21 01:42:14
tryton-modules-account-invoice-defer/-2024-02-21 01:42:14
tseries/-2024-02-21 01:42:14
turing/-2024-02-21 01:42:14
tryton-modules-carrier-subdivision/-2024-02-21 01:42:14
tudu/-2024-02-21 01:42:14
tryton-modules-stock-lot/-2024-02-21 01:42:14
tryton-modules-sale-supply-drop-shipment/-2024-02-21 01:42:14
ttyplot/-2024-02-21 01:42:14
tryton-modules-purchase-request/-2024-02-21 01:42:14
tryton-modules-sale-subscription/-2024-02-21 01:42:14
tryton-modules-account-invoice-stock/-2024-02-21 01:42:14
tuning-library/-2024-02-21 01:42:14
tryton-modules-stock-forecast/-2024-02-21 01:42:14
tryton-modules-sale-promotion/-2024-02-21 01:42:14
tryton-modules-sale-shipment-tolerance/-2024-02-21 01:42:14
tycho2/-2024-02-21 01:42:15
typecatcher/-2024-02-21 01:42:15
tzsetup/-2024-02-21 01:42:15
txacme/-2024-02-21 01:42:15
twolame/-2024-02-21 01:42:15
tnseq-transit/-2024-02-21 12:07:28
trufont/-2024-02-24 06:22:53
teckit/-2024-02-24 06:26:17
toppler/-2024-02-25 06:23:39
tiv/-2024-02-25 06:23:39
tiles-autotag/-2024-02-26 06:22:32
tinyexr/-2024-02-26 06:25:10
timew/-2024-02-27 06:22:51
tractor/-2024-02-28 06:20:57
trollsift/-2024-02-29 06:22:32
trml2pdf/-2024-02-29 06:22:32
tox-delay/-2024-02-29 06:22:42
tuned/-2024-03-01 00:05:40
timelimit/-2024-03-01 06:22:00
tdbcsqlite3/-2024-03-03 06:20:36
tdbcmysql/-2024-03-03 06:21:54
tdbcpostgres/-2024-03-03 06:21:54
tdbcodbc/-2024-03-03 06:21:54
tdbc/-2024-03-03 06:21:54
tanidvr/-2024-03-05 03:30:14
tdom/-2024-03-05 03:30:14
taffybar/-2024-03-05 03:30:14
tablelog/-2024-03-05 03:30:14
taglib/-2024-03-05 03:30:14
teeworlds/-2024-03-05 03:30:14
taopm/-2024-03-05 03:30:14
taskd/-2024-03-05 03:30:14
tds-fdw/-2024-03-05 03:30:14
talksoup.app/-2024-03-05 03:30:14
tdigest/-2024-03-05 03:30:14
tailspin/-2024-03-05 03:30:14
terminal.app/-2024-03-05 03:30:15
termbox/-2024-03-05 03:30:15
telegram-desktop/-2024-03-05 03:30:15
termshark/-2024-03-05 03:30:16
termpaint/-2024-03-05 03:30:16
terminews/-2024-03-05 03:30:16
thinkfan/-2024-03-05 03:30:17
theli/-2024-03-05 03:30:17
textedit.app/-2024-03-05 03:30:17
tfk8s/-2024-03-05 03:30:17
textql/-2024-03-05 03:30:17
tinyobjloader/-2024-03-05 03:30:18
timemon.app/-2024-03-05 03:30:18
tiff/-2024-03-05 03:30:18
tinyarray/-2024-03-05 03:30:18
tiny-initramfs/-2024-03-05 03:30:18
tlsh/-2024-03-05 03:30:18
toastinfo/-2024-03-05 03:30:18
tiddit/-2024-03-05 03:30:18
tombo/-2024-03-05 03:30:18
tkrplot/-2024-03-05 03:30:18
tml/-2024-03-05 03:30:18
thunderbolt-tools/-2024-03-05 03:30:18
trend/-2024-03-05 03:30:19
transrate-tools/-2024-03-05 03:30:19
travis/-2024-03-05 03:30:19
triggerhappy/-2024-03-05 03:30:19
toulbar2/-2024-03-05 03:30:19
trigger-rally/-2024-03-05 03:30:19
transcend/-2024-03-05 03:30:19
trackballs/-2024-03-05 03:30:19
toppred/-2024-03-05 03:30:19
trf/-2024-03-05 03:30:19
tty-share/-2024-03-05 03:30:20
typerep/-2024-03-05 03:30:20
tyxml/-2024-03-05 03:30:20
tvc/-2024-03-05 03:30:20
takari-polyglot-maven/-2024-03-05 06:13:38
tmpreaper/-2024-03-05 06:14:09
timeout-decorator/-2024-03-06 06:20:18
tasksel/-2024-03-06 10:17:33
tvdb-api/-2024-03-07 06:20:26
tvnamer/-2024-03-07 06:20:29
trompeloeil-cpp/-2024-03-07 06:20:48
tclthread/-2024-03-07 06:20:49
tcl8.6/-2024-03-07 06:20:50
txtorcon/-2024-03-10 18:01:26
tk8.6/-2024-03-10 18:01:57
token-bucket/-2024-03-13 09:57:11
toml11/-2024-03-14 12:00:50
time-decode/-2024-03-14 12:00:55
twisted/-2024-03-14 12:00:55
terraintool/-2024-03-16 12:01:21
tinyssh/-2024-03-16 12:01:47
trydiffoscope/-2024-03-17 06:20:07
trapperkeeper-webserver-jetty9-clojure/-2024-03-18 00:15:08
tilemaker/-2024-03-21 06:21:27
textual/-2024-03-22 00:04:58
tox-current-env/-2024-03-24 06:20:36
terminaltables/-2024-03-26 06:20:06
tortoisehg/-2024-03-27 06:20:12
tdiary/-2024-03-29 07:20:05
tdiary-style-gfm/-2024-03-29 07:20:05
ts-node/-2024-03-29 07:20:06
taskw/-2024-03-30 06:20:26
tix/-2024-04-01 00:09:06
tdiary-contrib/-2024-04-01 06:21:10
tdiary-theme/-2024-04-01 06:21:10
tagpy/-2024-04-01 06:22:03
tmuxinator/-2024-04-02 00:06:34
tantan/-2024-04-03 06:20:00
tcltk-defaults/-2024-04-05 00:04:52
typer/-2024-04-05 06:19:48
toot/-2024-04-08 00:21:55
texext/-2024-04-08 00:21:55
tempest/-2024-04-09 06:18:07
todo.txt-gtd/-2024-04-09 06:18:07
tcp-wrappers/-2024-04-09 06:21:14
tla/-2024-04-10 06:09:27
tack/-2024-04-11 06:20:38
tftp-proxy/-2024-04-12 06:20:26
trove-tempest-plugin/-2024-04-13 06:20:20
telemetry-tempest-plugin/-2024-04-13 06:20:20
tsocks/-2024-04-14 06:20:29
trove-dashboard/-2024-04-15 00:11:54
trueprint/-2024-04-15 06:20:14
theharvester/-2024-04-16 16:25:01
ttconv/-2024-04-17 06:19:48
thesias/-2024-04-19 06:21:57
tmfs/-2024-04-19 06:21:58
timekpr-next/-2024-04-19 06:21:58
tinydyndns/-2024-04-20 06:20:41
tio/-2024-04-20 06:20:41
testresources/-2024-04-22 00:00:50
tryton-modules-account-payment-stripe/-2024-04-22 00:00:51
tryton-modules-account-payment/-2024-04-22 00:00:51
tryton-modules-party/-2024-04-22 00:00:52
tryton-modules-sale-supply/-2024-04-22 00:00:52
tryton-modules-sale-advance-payment/-2024-04-22 00:00:52
tryton-modules-stock-supply/-2024-04-22 00:00:52
tryton-modules-purchase-amendment/-2024-04-22 00:00:52
tryton-modules-edocument-uncefact/-2024-04-22 00:00:52
tryton-modules-production/-2024-04-22 00:00:52
tryton-modules-account-statement-aeb43/-2024-04-22 00:00:52
tryton-modules-sale-payment/-2024-04-22 00:00:52
tryton-modules-stock-package-shipping-ups/-2024-04-22 00:00:52
tryton-modules-sale-amendment/-2024-04-22 00:00:52
tryton-modules-account-statement/-2024-04-22 00:00:52
tryton-modules-production-outsourcing/-2024-04-22 00:00:52
t2n/-2024-04-22 00:01:19
tippecanoe/-2024-04-22 00:11:51
typespeed/-2024-04-22 00:11:52
twig-i18n-extension/-2024-04-22 08:45:23
tlswrapper/-2024-04-22 08:46:04
tk-html3/-2024-04-22 08:46:04
tryton-sao/-2024-04-24 06:28:59
taningia/-2024-04-24 06:49:06
taktuk/-2024-04-24 06:49:06
tinyframe/-2024-04-24 06:49:10
tomlplusplus/-2024-04-24 06:49:12
toontag/-2024-04-24 06:49:12
tslib/-2024-04-24 06:49:13
tkrzw-python/-2024-04-24 06:49:58
tdfsb/-2024-04-24 06:50:05
tilde/-2024-04-24 06:50:05
tardy/-2024-04-24 06:50:05
tntnet/-2024-04-24 06:50:06
tokyocabinet/-2024-04-24 06:50:07
traildb/-2024-04-24 18:05:27
tasksh/-2024-04-24 18:06:53
tclreadline/-2024-04-24 18:06:54
tig/-2024-04-24 18:06:54
tintin++/-2024-04-24 18:06:55
tboot/-2024-04-25 00:05:03
tkcvs/-2024-04-25 06:22:28
teem/-2024-04-25 06:28:48
torcs/-2024-04-25 06:28:49
tuxpuck/-2024-04-25 06:28:50
tarantool/-2024-04-26 00:03:11
trac-accountmanager/-2024-04-26 06:23:15
trac-httpauth/-2024-04-26 06:23:15
trac-roadmap/-2024-04-26 06:23:15
tinygltf/-2024-04-26 06:29:32
tcpbench/-2024-04-26 06:29:57
tmate/-2024-04-26 06:29:58
tmux/-2024-04-26 06:29:58
tmate-ssh-server/-2024-04-26 06:29:58
trickle/-2024-04-26 06:29:59
task/-2024-04-27 00:15:27
tuxpaint/-2024-04-27 00:15:38
t4kcommon/-2024-04-27 00:21:22
text-engine/-2024-04-27 00:21:23
tcmu/-2024-04-27 00:22:05
termdebug/-2024-04-27 00:22:05
tecla/-2024-04-27 00:22:05
tmispell-voikko/-2024-04-27 00:22:06
thermald/-2024-04-27 00:22:06
tfdocgen/-2024-04-27 00:22:06
tkgate/-2024-04-27 00:22:06
tofi/-2024-04-27 00:22:07
tomboy-ng/-2024-04-27 00:22:07
tvoe/-2024-04-27 00:22:08
tuba/-2024-04-27 00:22:08
trac-wikiprint/-2024-04-28 00:01:55
twine/-2024-04-28 00:01:56
tuigreet/-2024-04-28 00:09:27
toolz/-2024-04-28 06:22:01
tkabber-plugins/-2024-04-28 06:22:02
tkabber/-2024-04-28 06:22:02
tklib/-2024-04-28 06:22:02
tclvfs/-2024-04-28 06:29:41
topcom/-2024-04-28 12:09:19
talloc/-2024-04-29 00:21:47
tennix/-2024-04-29 00:22:36
tepl/-2024-04-29 06:33:54
target-factory/-2024-04-29 06:33:54
trantor/-2024-04-29 06:33:55
teg/-2024-04-29 06:35:02
tali/-2024-04-29 06:35:02
tenace/-2024-04-29 06:35:03
termit/-2024-04-29 06:35:03
thunar/-2024-04-29 06:35:03
telegnome/-2024-04-29 06:35:03
thin/-2024-04-29 06:35:03
terminus/-2024-04-29 06:35:03
thunar-media-tags-plugin/-2024-04-29 06:35:04
thunar-volman/-2024-04-29 06:35:04
thunar-archive-plugin/-2024-04-29 06:35:04
thunar-vcs-plugin/-2024-04-29 06:35:04
tickr/-2024-04-29 06:35:05
tilem/-2024-04-29 06:35:05
thunarx-python/-2024-04-29 06:35:05
tilda/-2024-04-29 06:35:05
tilp2/-2024-04-29 06:35:06
timeshift/-2024-04-29 06:35:06
timemachine/-2024-04-29 06:35:06
trayer/-2024-04-29 06:35:06
treil/-2024-04-29 06:35:06
tcpdf/-2024-04-29 12:43:48
termtris/-2024-04-29 12:43:48
tlog/-2024-04-29 12:43:49
tomcat10/-2024-04-29 12:43:49
tint2/-2024-04-29 16:09:14
tuxguitar/-2024-04-30 00:34:30
tensorpipe/-2024-04-30 00:41:30
taggrepper/-2024-04-30 00:44:47
tipp10/-2024-04-30 18:28:27
transmission-remote-gtk/-2024-04-30 18:28:27
trabucco/-2024-04-30 18:28:27
tevent/-2024-05-01 00:10:48
typedload/-2024-05-01 06:20:36
toga2/-2024-05-01 06:21:06
tcpslice/-2024-05-02 00:11:19
tcpreplay/-2024-05-02 00:11:19
tcpick/-2024-05-02 00:11:19
tcpxtract/-2024-05-02 00:11:20
tcptrace/-2024-05-02 00:11:20
tcptraceroute/-2024-05-02 00:11:20
topplot/-2024-05-02 06:22:44
texworks/-2024-05-02 06:27:55
tcplay/-2024-05-02 06:29:29
threeb/-2024-05-02 12:02:58
tigervnc/-2024-05-02 12:03:00
tuxpaint-config/-2024-05-02 12:03:00
trollimage/-2024-05-03 00:02:00
thefuzz/-2024-05-03 04:11:26
tuiwidgets/-2024-05-03 04:33:21
tomcat-native/-2024-05-03 05:01:17
totem-pl-parser/-2024-05-03 05:01:34
tcl-fitstcl/-2024-05-03 05:09:30
tcltls/-2024-05-03 05:09:30
tcm/-2024-05-03 05:09:31
tclcurl/-2024-05-03 05:09:31
tcpflow/-2024-05-03 05:09:32
tcpstat/-2024-05-03 05:09:32
tea/-2024-05-03 05:09:32
tetraproc/-2024-05-03 05:09:36
texlive-bin/-2024-05-03 05:09:37
texmaker/-2024-05-03 05:09:37
tf5/-2024-05-03 05:09:38
tgif/-2024-05-03 05:09:38
thc-ipv6/-2024-05-03 05:09:39
tiatracker/-2024-05-03 05:09:40
tikzit/-2024-05-03 05:09:41
tiled-qt/-2024-05-03 05:09:42
tinc/-2024-05-03 05:09:43
tnftp/-2024-05-03 05:09:44
tokodon/-2024-05-03 05:09:45
tpm-quote-tools/-2024-05-03 05:09:46
traceshark/-2024-05-03 05:09:48
transfuse/-2024-05-03 05:09:48
traverso/-2024-05-03 05:09:50
trojan/-2024-05-03 05:09:51
trousers/-2024-05-03 05:09:51
tvtime/-2024-05-03 05:09:55
tutka/-2024-05-03 05:09:55
twpsk/-2024-05-03 05:09:56
twclock/-2024-05-03 05:09:56
trinityrnaseq/-2024-05-03 05:24:00
template-glib/-2024-05-03 05:35:28
tpm2-pkcs11/-2024-05-03 05:35:39
tpm2-tss/-2024-05-03 05:35:43
tpm2-pytss/-2024-05-03 05:38:54
tagua/-2024-05-03 05:40:03
tanglet/-2024-05-03 05:40:03
tango/-2024-05-03 05:40:04
taskflow/-2024-05-03 05:40:05
terminology/-2024-05-03 05:40:06
tcpdump/-2024-05-03 05:40:06
tesseract/-2024-05-03 05:40:06
tcltrf/-2024-05-03 05:40:06
tetzle/-2024-05-03 05:40:07
texinfo/-2024-05-03 05:40:07
texstudio/-2024-05-03 05:40:07
testdisk/-2024-05-03 05:40:07
thrift/-2024-05-03 05:40:08
tgt/-2024-05-03 05:40:08
timg/-2024-05-03 05:40:09
timidity/-2024-05-03 05:40:09
tlf/-2024-05-03 05:40:09
tone-generator/-2024-05-03 05:40:09
tor/-2024-05-03 05:40:10
tpm-tools/-2024-05-03 05:40:10
totem/-2024-05-03 05:40:10
tpm2-abrmd/-2024-05-03 05:40:10
tpm2-tss-engine/-2024-05-03 05:40:11
tpm2-openssl/-2024-05-03 05:40:11
tpm2-initramfs-tool/-2024-05-03 05:40:11
transmission/-2024-05-03 05:40:12
tremotesf/-2024-05-03 05:40:13
tsdecrypt/-2024-05-03 05:40:13
tss2/-2024-05-03 05:40:13
ttfautohint/-2024-05-03 05:40:13
trurl/-2024-05-03 05:40:13
tupi/-2024-05-03 05:40:14
tumbler/-2024-05-03 05:40:14
tightvnc/-2024-05-03 05:41:11
tryton-modules-stock/-2024-05-03 18:02:41
terminatorx/-2024-05-03 18:05:04
telepathy-farstream/-2024-05-04 00:01:16
telepathy-glib/-2024-05-04 00:01:17
telepathy-logger-qt/-2024-05-04 00:01:18
telepathy-qt/-2024-05-04 00:01:19
telepathy-accounts-signon/-2024-05-04 00:01:20
telepathy-haze/-2024-05-04 00:01:20
telepathy-mission-control-5/-2024-05-04 00:01:21
telepathy-idle/-2024-05-04 00:01:21
telepathy-logger/-2024-05-04 00:01:21
telepathy-rakia/-2024-05-04 00:01:22
tse3/-2024-05-04 06:05:41
tcptrack/-2024-05-05 06:22:48
tuxtype/-2024-05-05 18:04:07
tuxmath/-2024-05-05 18:04:07
tox/-2024-05-06 01:28:00
tifffile/-2024-05-06 01:28:00
toil/-2024-05-06 01:28:00
tryton-modules-sale/-2024-05-06 06:06:37
tryton-modules-project-revenue/-2024-05-06 06:06:37
tryton-modules-stock-product-location/-2024-05-06 06:06:37
tryton-modules-account-tax-cash/-2024-05-06 06:06:37
tryton-modules-account/-2024-05-06 06:06:37
tryton-modules-account-product/-2024-05-06 06:06:37
tryton-modules-account-stock-continental/-2024-05-06 06:06:37
tryton-modules-stock-package-shipping/-2024-05-06 06:06:37
tryton-modules-account-tax-rule-country/-2024-05-06 06:06:37
tryton-modules-purchase/-2024-05-06 06:06:37
tryton-server/-2024-05-06 06:06:37
tryton-modules-company/-2024-05-06 06:06:37
tryton-modules-stock-shipment-cost/-2024-05-06 06:06:37
tryton-modules-account-invoice/-2024-05-06 06:06:37
tachyon/-2024-05-06 06:14:44
toppic/-2024-05-06 06:14:45
tree-puzzle/-2024-05-06 06:14:46
tellico/-2024-05-06 06:58:11
tucnak/-2024-05-07 00:03:26
tkrzw/-2024-05-07 00:27:15
thc-ssl-dos/-2024-05-07 01:45:05
tin/-2024-05-07 06:11:38
treesheets/-2024-05-07 18:07:06
tintii/-2024-05-07 18:07:06
trustedqsl/-2024-05-07 18:07:07
treeviewx/-2024-05-07 18:07:07
trivy/-2024-05-07 18:11:13
trilinos/-2024-05-08 00:03:48
thc-pptp-bruter/-2024-05-08 10:45:03
tzdata/-2024-05-08 18:01:54
twm/-2024-05-08 18:04:13
therion/-2024-05-08 18:06:31
threadweaver/-2024-05-08 18:12:47
tinyusb/-2024-05-09 07:06:57
tetrinetx/-2024-05-09 07:08:43
tclsoldout/-2024-05-09 07:08:43
translate-toolkit/-2024-05-09 15:58:13
tqdm/-2024-05-10 06:22:40
treeview/-2024-05-10 06:22:44
tomb/-2024-05-10 18:05:23
tripwire/-2024-05-11 06:26:43
tcl-syslog/-2024-05-11 06:27:19
tnef/-2024-05-12 06:21:22
tirex/-2024-05-12 07:02:33
ticcutils/-2024-05-13 06:22:38
topal/-2024-05-13 06:22:45
timblserver/-2024-05-13 06:22:45
timbl/-2024-05-13 06:22:45
tundeep/-2024-05-13 08:28:23
truecrack/-2024-05-14 05:48:36
tracker-miners/-2024-05-14 14:47:13
tracker/-2024-05-14 14:47:13
tetragon/-2024-05-14 14:51:49
tfortune/-2024-05-14 18:29:37
tcsh/-2024-05-14 18:29:37
tryton-client/-2024-05-14 18:29:37
tpm2-tools/-2024-05-15 07:09:47
tinyproxy/-2024-05-15 07:09:47
thunderbird/-2024-05-15 07:09:47